Lexington Weather

Lexington, Massachusetts, USA

44°F
4/22/2024 8:58am 
  • Lexington Conditions: Clear
  • Temperature: 43.5°F / 6.4°CWarmer 3.2°F than last hour.
  • Dew Point: 26.6°FDecreased 2.2°Fsince last hour.
  • Relative Humidity: 51%Decreased 12.0% since last hour.
  • Wind: Calm, 10-min avg: Calm, gust: 1 mph
  • Barometer: 29.96 in Steady
  • Visibility: 10 miles
  • Rain Today: 0.00 in
  •   

Regional Weather Roundup
for Boston, MA

        
000
ASUS41 KBOX 210610
RWRBOX

REGIONAL WEATHER ROUNDUP
NATIONAL WEATHER SERVICE BOSTON/NORTON MA
200 AM EDT SUN APR 21 2024

NOTE:  "FAIR" INDICATES FEW OR NO CLOUDS BELOW 12,000 FEET WITH NO 
SIGNIFICANT WEATHER AND/OR OBSTRUCTIONS TO VISIBILITY.

MAZALL-210700-
EASTERN MASSACHUSETTS
  
CITY           SKY/WX    TMP DP  RH WIND       PRES   REMARKS
BOSTON         CLEAR     45  27  49 W12       29.95R                  
6HR MIN TEMP:  45; 6HR MAX TEMP:  59;                                

BEVERLY        CLEAR     42  26  53 NW6       29.94R                  
LAWRENCE       CLEAR     42  25  50 W8        29.95S                  
BEDFORD        CLEAR     40  26  57 W6        29.95R                  
NORWOOD        CLEAR     43  27  53 W6        29.96R                  
MARSHFIELD     CLEAR     43  30  61 VRB3      29.94S                  
PLYMOUTH       CLEAR     42  29  59 NW5       29.94R                  
TAUNTON        CLEAR     44  27  51 NW3       29.95S                  
NEW BEDFORD    CLEAR     42  30  62 NW5       29.95R                  
$$

MAZALL-210700-
CAPE COD AND THE ISLANDS
  
CITY           SKY/WX    TMP DP  RH WIND       PRES   REMARKS
FALMOUTH       CLEAR     41  32  70 NW8       29.95R                  
HYANNIS        CLEAR     43  30  60 NW7       29.92R                  
CHATHAM        CLEAR     46  33  60 NW6       29.93R                  
PROVINCETOWN   CLEAR     45  35  68 NW17      29.94R                  
NANTUCKET      CLEAR     46  36  68 NW14      29.93S                  
MARTHAS VNYRD  CLEAR     45  33  63 NW14G22   29.94F                  
$$
 
MAZALL-210700-
CENTRAL AND WESTERN MASSACHUSETTS
  
CITY           SKY/WX    TMP DP  RH WIND       PRES   REMARKS
WORCESTER      CLEAR     39  22  50 W15       29.93F WCI  31          
6HR MIN TEMP:  38; 6HR MAX TEMP:  49;                                

FITCHBURG      CLEAR     41  23  48 CALM      29.96S                  
ORANGE         CLEAR     38  24  57 NW6       29.97S                  
SPRINGFIELD    CLEAR     39  25  57 NW3       29.97S                  
WESTFIELD      CLEAR     39  25  57 CALM      29.99F                  
NORTH ADAMS    PTCLDY    37  25  61 W3        29.98S                  
PITTSFIELD     PTCLDY    34  24  67 W7        29.97S WCI  28          
$$
 
RIZALL-210700-
RHODE ISLAND
  
CITY           SKY/WX    TMP DP  RH WIND       PRES   REMARKS
PROVIDENCE     CLEAR     43  25  49 NW6       29.97S                  
6HR MIN TEMP:  43; 6HR MAX TEMP:  55; 6HR PCP: TRACE;                

NEWPORT        CLEAR     43  27  53 NW13G24   29.96S                  
BLOCK ISLAND   CLEAR     43  27  53 NW13G18   29.98F                  
SMITHFIELD     CLEAR     40  25  55 NW6       29.96S                  
WESTERLY       CLEAR     44  26  49 NW8       29.98S                  
$$
 
CTZALL-210700-
CONNECTICUT
  
CITY           SKY/WX    TMP DP  RH WIND       PRES   REMARKS
BRADLEY INTL   CLEAR     42  26  53 NW9       30.00S                  
6HR MIN TEMP:  42; 6HR MAX TEMP:  51;                                

HARTFORD       CLEAR     43  25  49 VRB5      30.01S                  
PLAINVILLE     FAIR      42  25  51 NW6       30.00F                  
BRIDGEPORT     CLEAR     44  25  47 NW5       30.01F                  
DANBURY        CLEAR     41  25  53 NW5       30.02F                  
GROTON         CLEAR     44  27  51 NW10G21   29.98F                  
NEW HAVEN      CLEAR     46  27  47 NW8G18    30.01S                  
CHESTER        CLEAR     43  23  45 W13G20    29.99S                  
MERIDEN        CLEAR     43  25  49 NW6       30.02R                  
WILLIMANTIC    CLEAR     41  25  53 NW5       29.99S                  
OXFORD         CLEAR     40  25  55 NW6       30.01S                  
$$

MEZ002-015-021-024-NHZ003-005-008-011-012-014-VTZ005-008-210700-
NORTHERN NEW ENGLAND
  
CITY           SKY/WX    TMP DP  RH WIND       PRES   REMARKS
PORTLAND ME    CLEAR     40  30  67 W6        29.90F                  
6HR MIN TEMP:  40; 6HR MAX TEMP:  50; 6HR PCP: TRACE;                

BANGOR ME      MOCLDY    42  34  73 W7        29.84F                  
CONCORD NH     CLEAR     40  25  55 W6        29.93S                  
MANCHESTER NH  CLEAR     43  24  47 SW3       29.92S                  
NASHUA NH      CLEAR     39  26  59 SW5       29.95S                  
PORTSMOUTH NH  CLEAR     43  26  52 W8        29.91S                  
JAFFREY NH     CLEAR     37  25  61 S5        29.93S                  
KEENE NH       CLEAR     33  26  75 SW7       29.96S WCI  27          
BURLINGTON VT  MOCLDY    41  28  60 VRB5      29.93F                  
MT. WASHINGTON NOT AVBL                                               
$$

NYZ052-076-210700-
EASTERN NEW YORK
  
CITY           SKY/WX    TMP DP  RH WIND       PRES   REMARKS
ALBANY         PTCLDY    38  26  62 W7        30.02F                  
6HR MIN TEMP:  38; 6HR MAX TEMP:  46;                                

NEW YORK CITY  CLEAR     46  24  42 N12       30.03R                  
6HR MIN TEMP:  46; 6HR MAX TEMP:  59;                                

$$
 
ANZALL-210700-
MARINE OBSERVATIONS
  
STATION/POSITION TIME  TEMP    WIND        PRES    VSBY  WAVE
                       AIR SEA DIR/SP/G                  HT/PER
                 (UTC) (F)     (DEG/KT/KT) (MB)    (MI)  (FT/S)
BOSTON BUOY      0550   46     300/ 14/ 17 1013.5R         3/ 3
BUZZARDS BAY     0500   47     310/ 18/ 20 1014.8S
NANTUCKET SOUND  0550   48 48  310/ 17/ 21 1013.0S         2/ 3
MASS BAY-STELLWA 0404   48 46  300/ 17/ 19 1013.3   1 7/8  2/ 3
ISLE OF SHOALS   0500   46     300/ 15/ 17 1012.3R
S OF BLOCK IS    0526      44                N/A           4/ 4
$$

......................KEY.........................
  SKY/WX - SKY CONDITION/PRESENT WEATHER
  TMP    - TEMPERATURE IN FAHRENHEIT
  DWPT   - DEWPOINT IN FAHRENHEIT
  RH     - RELATIVE HUMIDITY IN PERCENT
  WIND   - DIRECTION AND SPEED IN MPH
  PRES   - MEAN SEA LEVEL PRESSURE IN INCHES OF HG
  WCI    - WIND CHILL INDEX
  VSB    - VISIBILITY IN MILES
  HX     - HEAT INDEX
  TC     - TEMPERATURE IN CELSIUS
  VRB    - VARIABLE WIND DIRECTION
  N/A    - NOT AVAILABLE
  
      

Other recent Regional Weather Roundups

Mon Apr 22, 8:10am EDT

Mon Apr 22, 7:10am EDT

Mon Apr 22, 6:10am EDT

Mon Apr 22, 5:10am EDT

Mon Apr 22, 4:10am EDT

Mon Apr 22, 3:10am EDT

Mon Apr 22, 2:10am EDT

Mon Apr 22, 1:10am EDT

Mon Apr 22, 12:10am EDT

Sun Apr 21, 11:10pm EDT

Sun Apr 21, 10:10pm EDT

Sun Apr 21, 9:10pm EDT

Sun Apr 21, 8:10pm EDT

Sun Apr 21, 7:10pm EDT

Sun Apr 21, 6:10pm EDT

Sun Apr 21, 5:10pm EDT

Sun Apr 21, 4:10pm EDT

Sun Apr 21, 3:10pm EDT

Sun Apr 21, 2:10pm EDT

Sun Apr 21, 1:10pm EDT

Sun Apr 21, 12:10pm EDT

Sun Apr 21, 11:10am EDT

Sun Apr 21, 10:10am EDT

Sun Apr 21, 9:10am EDT

Sun Apr 21, 8:10am EDT

Sun Apr 21, 7:10am EDT

Sun Apr 21, 6:10am EDT

Sun Apr 21, 5:10am EDT

Sun Apr 21, 4:10am EDT

Sun Apr 21, 3:10am EDT

Sun Apr 21, 1:10am EDT

Sun Apr 21, 12:10am EDT

Sat Apr 20, 11:10pm EDT

Sat Apr 20, 10:10pm EDT

Sat Apr 20, 9:10pm EDT

Sat Apr 20, 8:10pm EDT

Sat Apr 20, 7:10pm EDT

Sat Apr 20, 6:10pm EDT

Sat Apr 20, 5:10pm EDT

Sat Apr 20, 4:10pm EDT

Sat Apr 20, 3:10pm EDT

Sat Apr 20, 2:10pm EDT

Sat Apr 20, 1:10pm EDT

Sat Apr 20, 12:10pm EDT

Sat Apr 20, 11:10am EDT

Sat Apr 20, 10:10am EDT

Sat Apr 20, 9:10am EDT

Sat Apr 20, 8:10am EDT

Sat Apr 20, 7:10am EDT

Sat Apr 20, 6:10am EDT

Sat Apr 20, 5:10am EDT

Sat Apr 20, 4:10am EDT

Sat Apr 20, 3:10am EDT

Sat Apr 20, 2:10am EDT

Sat Apr 20, 1:10am EDT

Sat Apr 20, 12:10am EDT

Fri Apr 19, 11:10pm EDT

Fri Apr 19, 10:10pm EDT

Fri Apr 19, 9:10pm EDT

Fri Apr 19, 8:10pm EDT

Fri Apr 19, 7:10pm EDT

Fri Apr 19, 6:10pm EDT

Fri Apr 19, 5:10pm EDT

Fri Apr 19, 4:10pm EDT

Fri Apr 19, 3:10pm EDT

Fri Apr 19, 2:10pm EDT

Fri Apr 19, 1:10pm EDT

Fri Apr 19, 12:10pm EDT

Fri Apr 19, 11:10am EDT

Fri Apr 19, 10:10am EDT

Fri Apr 19, 9:10am EDT

Fri Apr 19, 8:10am EDT

Fri Apr 19, 7:10am EDT

Fri Apr 19, 6:10am EDT

Fri Apr 19, 5:10am EDT

Fri Apr 19, 4:10am EDT

Fri Apr 19, 3:10am EDT

Fri Apr 19, 2:10am EDT

Fri Apr 19, 1:10am EDT

Fri Apr 19, 12:10am EDT

Thu Apr 18, 11:10pm EDT

Thu Apr 18, 10:10pm EDT

Thu Apr 18, 9:10pm EDT

Thu Apr 18, 8:10pm EDT

Thu Apr 18, 7:10pm EDT

Thu Apr 18, 6:10pm EDT

Thu Apr 18, 5:10pm EDT

Thu Apr 18, 4:10pm EDT

Thu Apr 18, 3:10pm EDT

Thu Apr 18, 2:10pm EDT

Thu Apr 18, 1:10pm EDT

Thu Apr 18, 12:10pm EDT

Thu Apr 18, 11:10am EDT

Thu Apr 18, 10:10am EDT

Thu Apr 18, 9:10am EDT

Thu Apr 18, 8:10am EDT

Thu Apr 18, 7:10am EDT

Thu Apr 18, 6:10am EDT

Thu Apr 18, 5:10am EDT

Thu Apr 18, 4:10am EDT

Thu Apr 18, 3:10am EDT

Thu Apr 18, 2:10am EDT

Thu Apr 18, 1:10am EDT

Thu Apr 18, 12:10am EDT

Wed Apr 17, 11:10pm EDT

Wed Apr 17, 10:10pm EDT

Wed Apr 17, 9:10pm EDT

Wed Apr 17, 8:10pm EDT

Wed Apr 17, 7:10pm EDT

Wed Apr 17, 6:10pm EDT

Wed Apr 17, 5:10pm EDT

Wed Apr 17, 4:10pm EDT

Wed Apr 17, 3:10pm EDT

Wed Apr 17, 2:10pm EDT

Wed Apr 17, 1:10pm EDT

Wed Apr 17, 12:10pm EDT

Wed Apr 17, 11:10am EDT

Wed Apr 17, 10:10am EDT

Wed Apr 17, 9:10am EDT

Wed Apr 17, 8:10am EDT

Wed Apr 17, 7:10am EDT

Wed Apr 17, 6:10am EDT

Wed Apr 17, 5:10am EDT

Wed Apr 17, 4:10am EDT

Wed Apr 17, 3:10am EDT

Wed Apr 17, 2:10am EDT

Wed Apr 17, 1:10am EDT

Wed Apr 17, 12:10am EDT

Tue Apr 16, 11:10pm EDT

Tue Apr 16, 10:10pm EDT

Tue Apr 16, 9:10pm EDT

Tue Apr 16, 8:10pm EDT

Tue Apr 16, 7:10pm EDT

Tue Apr 16, 6:10pm EDT

Tue Apr 16, 5:10pm EDT

Tue Apr 16, 4:10pm EDT

Tue Apr 16, 3:10pm EDT

Tue Apr 16, 2:10pm EDT

Tue Apr 16, 1:10pm EDT

Tue Apr 16, 12:10pm EDT

Tue Apr 16, 11:10am EDT

Tue Apr 16, 10:10am EDT

Tue Apr 16, 9:10am EDT

Tue Apr 16, 8:10am EDT

Tue Apr 16, 7:10am EDT

Tue Apr 16, 6:10am EDT

Tue Apr 16, 5:10am EDT

Tue Apr 16, 4:10am EDT

Tue Apr 16, 3:10am EDT

Tue Apr 16, 2:10am EDT

Tue Apr 16, 1:10am EDT

Tue Apr 16, 12:10am EDT

Mon Apr 15, 11:10pm EDT

Mon Apr 15, 10:10pm EDT

Mon Apr 15, 9:10pm EDT

Mon Apr 15, 8:10pm EDT

Mon Apr 15, 7:10pm EDT

Mon Apr 15, 6:10pm EDT

Mon Apr 15, 5:10pm EDT

Mon Apr 15, 4:10pm EDT

Mon Apr 15, 3:10pm EDT

Mon Apr 15, 2:10pm EDT

Mon Apr 15, 1:10pm EDT

Mon Apr 15, 12:10pm EDT

Mon Apr 15, 11:10am EDT

Mon Apr 15, 10:10am EDT

Mon Apr 15, 9:10am EDT